Vorticity
9 8 9 8 6 4 4 5 5 5 5 5 6 9 10 10 9 8 8 8 10 11 10 6 3 3 4 13 13 9 11 13 16 -6 1 12 15 11 4 8 4 2 -1
9 7 6 7 8 7 5 5 6 8 9 10 9 9 10 11 12 13 13 12 12 11 11 13 12 13 8 7 4 8 13 18 23 8 -6 -6 4 11 17 11 5 12 9
7 9 7 6 6 7 8 9 10 10 11 13 14 12 12 12 13 13 14 14 14 13 13 13 14 15 14 12 9 7 9 11 17 20 11 -4 -6 -2 2 9 14 13 8
7 6 7 8 7 8 8 9 11 12 11 9 10 12 15 18 20 22 22 25 26 25 23 22 20 19 18 14 13 13 9 8 11 19 12 9 6 -2 2 2 2 9 13
9 9 9 9 10 10 10 9 9 10 15 20 25 29 29 28 27 24 23 20 17 15 16 19 21 21 22 24 25 22 18 13 10 11 10 17 10 10 6 5 9 5 7
7 8 9 8 9 9 10 15 23 27 29 24 22 19 17 14 12 9 7 8 13 17 19 21 23 22 22 21 19 23 27 31 28 21 18 14 10 13 10 6 6 5 6
7 9 9 10 11 20 26 25 21 19 17 15 13 11 10 8 8 8 11 17 19 17 20 21 21 22 23 25 25 24 24 23 25 28 31 24 25 22 21 18 12 10 7
9 11 13 20 23 20 19 18 17 14 11 9 8 8 9 10 13 11 10 13 14 17 18 16 14 15 15 18 19 19 18 18 18 19 22 25 30 22 25 27 26 22 12
14 18 24 18 17 17 14 11 9 9 9 10 10 11 11 8 8 12 13 17 17 15 14 17 25 22 30 29 30 32 31 35 36 37 29 24 21 19 22 23 25 33 29
23 22 18 15 12 10 9 10 10 10 10 11 9 8 10 10 11 14 19 19 18 18 24 23 15 19 18 17 14 11 7 7 8 8 8 14 22 25 30 31 22 22 25
17 16 13 12 11 11 10 10 9 10 8 7 8 9 9 12 15 21 20 19 25 25 18 18 14 12 20 20 16 13 13 9 9 14 15 12 10 7 8 12 16 24 24
13 12 11 11 11 11 9 9 8 8 8 8 10 10 11 17 22 16 23 27 20 17 17 14 6 9 10 9 10 9 10 10 10 11 13 10 7 12 14 14 14 7 7
11 9 9 10 9 8 7 7 7 10 12 12 10 13 21 18 13 22 30 15 11 9 10 9 10 9 11 9 8 9 9 11 10 10 14 10 14 19 23 21 23 14 2
10 8 7 5 6 8 9 10 12 12 10 11 16 18 13 12 17 26 18 10 10 10 8 10 12 11 9 8 9 11 10 9 10 10 14 22 26 29 34 37 35 34 33
7 6 9 10 11 12 11 12 13 14 15 15 11 11 17 16 23 28 12 11 12 10 7 6 6 8 9 10 11 11 10 12 12 13 22 26 29 31 25 25 33 34 32
8 10 10 10 11 12 15 17 16 14 14 11 8 10 14 18 34 16 10 9 10 8 5 6 8 10 10 10 10 15 20 18 13 16 28 28 21 26 19 7 24 34 43
12 12 10 8 7 12 16 15 19 13 9 9 10 18 20 24 32 9 9 9 9 5 7 9 10 10 8 11 18 27 25 5 4 13 31 21 17 23 21 23 20 7 28
8 7 12 13 17 18 16 20 5 5 6 9 13 19 23 35 15 10 8 9 7 11 11 12 10 11 15 22 26 31 11 9 3 20 28 22 11 19 15 20 17 28 19
14 22 21 18 20 14 22 4 9 6 12 17 12 25 36 21 11 10 11 7 7 9 10 13 15 18 21 24 35 23 5 14 5 16 27 23 12 6 12 16 14 22 23
16 17 26 18 17 19 2 -2 5 2 15 14 31 33 23 7 7 12 9 8 11 10 12 14 15 16 16 31 18 8 8 14 10 16 24 22 23 13 7 9 9 6 21
4 16 30 13 13 1 5 1 6 1 22 19 34 23 8 7 12 10 10 11 11 13 13 12 15 11 10 34 16 7 4 6 17 11 18 19 21 20 19 14 10 13 6
7 25 28 10 8 9 8 6 8 8 25 19 31 8 7 10 11 10 11 10 12 12 12 13 17 10 7 22 32 18 16 10 19 9 13 19 19 21 18 16 20 19 17
13 18 24 20 10 11 9 6 3 13 20 36 12 6 8 10 10 10 10 10 12 11 11 10 15 18 8 9 24 25 13 18 15 14 2 4 25 16 21 19 16 17 22
15 7 4 6 10 10 5 4 4 20 24 26 5 8 11 11 10 9 10 10 10 11 8 9 9 10 17 11 9 21 15 19 13 15 17 7 27 21 17 21 20 20 20
15 24 26 22 18 15 12 10 12 21 32 11 6 10 11 10 10 9 8 10 10 11 11 10 5 2 6 11 14 7 15 19 17 10 19 5 28 26 24 10 14 11 20
18 21 23 28 28 27 23 24 21 25 19 4 9 12 10 9 9 8 8 9 8 10 12 13 12 9 7 6 8 13 10 8 14 17 15 8 24 32 24 24 21 11 3
Height
5647 5644 5642 5639 5636 5632 5628 5625 5621 5617 5614 5610 5606 5602 5598 5594 5590 5588 5585 5582 5581 5578 5573 5570 5569 5567 5568 5569 5570 5570 5571 5570 5572 5582 5593 5599 5604 5607 5610 5611 5614 5618 5622
5630 5628 5624 5621 5617 5612 5608 5605 5601 5596 5592 5587 5582 5577 5572 5568 5564 5560 5558 5554 5552 5551 5549 5547 5544 5541 5540 5540 5541 5543 5546 5546 5545 5549 5557 5569 5575 5579 5582 5587 5590 5594 5598
5612 5609 5604 5599 5594 5590 5585 5580 5576 5571 5566 5561 5556 5551 5545 5540 5535 5531 5527 5525 5523 5520 5518 5516 5515 5513 5513 5511 5510 5512 5514 5516 5519 5522 5527 5530 5541 5548 5554 5559 5564 5569 5572
5593 5589 5584 5578 5572 5567 5561 5556 5551 5545 5540 5535 5529 5524 5518 5513 5507 5502 5499 5496 5494 5491 5487 5484 5482 5481 5480 5480 5480 5481 5481 5484 5487 5490 5496 5501 5507 5516 5521 5527 5532 5537 5545
5573 5569 5564 5558 5552 5545 5539 5532 5526 5519 5514 5508 5502 5497 5491 5485 5479 5475 5472 5470 5466 5464 5460 5455 5452 5450 5448 5448 5446 5449 5448 5449 5452 5457 5464 5466 5480 5482 5488 5492 5499 5504 5515
5554 5548 5541 5534 5527 5520 5514 5508 5502 5495 5489 5484 5479 5475 5470 5464 5458 5453 5449 5447 5443 5438 5434 5430 5425 5422 5419 5417 5416 5416 5417 5416 5419 5421 5428 5433 5446 5447 5450 5456 5464 5467 5483
5532 5525 5519 5512 5504 5498 5492 5486 5481 5476 5471 5466 5462 5457 5453 5446 5440 5435 5429 5424 5419 5414 5409 5404 5401 5396 5392 5390 5389 5388 5389 5386 5385 5387 5393 5402 5402 5410 5413 5421 5425 5432 5449
5510 5502 5495 5488 5482 5477 5472 5468 5463 5459 5455 5450 5445 5439 5434 5427 5421 5414 5408 5402 5397 5392 5386 5381 5377 5373 5368 5366 5365 5364 5363 5361 5360 5361 5363 5369 5371 5374 5376 5379 5385 5392 5408
5488 5480 5473 5468 5463 5458 5454 5450 5446 5443 5438 5432 5427 5422 5416 5409 5401 5395 5387 5381 5377 5372 5367 5360 5354 5350 5347 5344 5341 5341 5341 5340 5337 5338 5340 5341 5344 5344 5346 5347 5353 5354 5371
5466 5460 5454 5450 5446 5442 5438 5434 5429 5424 5420 5415 5410 5403 5397 5390 5381 5374 5366 5361 5358 5354 5349 5344 5339 5333 5331 5328 5326 5325 5325 5323 5323 5322 5322 5322 5322 5323 5321 5319 5323 5325 5333
5449 5444 5439 5435 5431 5427 5422 5416 5411 5406 5401 5396 5393 5386 5380 5371 5364 5354 5348 5342 5338 5336 5333 5331 5326 5320 5316 5314 5311 5310 5308 5307 5306 5304 5304 5303 5303 5301 5299 5297 5297 5296 5301
5434 5429 5425 5420 5416 5411 5406 5400 5395 5389 5385 5379 5374 5369 5362 5354 5345 5338 5332 5326 5323 5321 5319 5316 5312 5307 5304 5301 5297 5294 5291 5288 5286 5284 5282 5281 5277 5274 5273 5271 5271 5269 5271
5418 5413 5408 5404 5399 5394 5389 5383 5378 5371 5366 5362 5356 5351 5346 5338 5330 5322 5318 5314 5311 5308 5305 5302 5297 5294 5290 5287 5282 5278 5274 5269 5265 5262 5258 5256 5250 5247 5243 5241 5241 5240 5240
5402 5398 5393 5388 5382 5377 5372 5367 5361 5355 5349 5344 5339 5334 5329 5323 5315 5309 5306 5304 5300 5297 5294 5291 5286 5282 5277 5272 5268 5262 5256 5250 5245 5239 5235 5229 5222 5216 5212 5207 5207 5206 5207
5387 5381 5377 5372 5366 5362 5356 5351 5345 5338 5333 5327 5322 5317 5313 5308 5301 5296 5293 5291 5288 5285 5281 5277 5272 5268 5263 5257 5252 5245 5238 5232 5226 5219 5211 5205 5198 5192 5188 5185 5182 5180 5182
5371 5365 5360 5355 5350 5345 5340 5335 5328 5323 5317 5310 5305 5300 5296 5290 5286 5283 5281 5278 5275 5271 5268 5263 5258 5253 5247 5242 5236 5230 5221 5215 5209 5203 5195 5187 5181 5176 5173 5169 5165 5162 5163
5354 5349 5344 5339 5334 5328 5324 5320 5316 5309 5301 5295 5290 5284 5279 5276 5272 5271 5269 5265 5262 5259 5254 5248 5243 5237 5231 5224 5218 5212 5207 5200 5194 5187 5179 5174 5169 5163 5159 5156 5153 5151 5151
5338 5332 5327 5322 5317 5312 5308 5305 5301 5298 5293 5284 5274 5271 5266 5262 5260 5260 5258 5255 5250 5245 5240 5235 5228 5222 5215 5209 5202 5197 5193 5188 5181 5174 5166 5162 5158 5153 5148 5145 5143 5141 5142
5320 5314 5309 5304 5300 5297 5294 5291 5287 5283 5278 5272 5265 5257 5254 5252 5250 5249 5248 5245 5240 5235 5228 5222 5216 5209 5202 5195 5189 5185 5182 5177 5170 5163 5156 5151 5147 5144 5141 5137 5135 5134 5134
5304 5298 5293 5289 5286 5283 5281 5278 5274 5269 5263 5257 5252 5248 5245 5244 5242 5240 5237 5233 5229 5224 5218 5212 5205 5198 5191 5184 5179 5175 5171 5166 5160 5152 5146 5141 5138 5135 5134 5132 5129 5128 5128
5288 5282 5277 5274 5271 5269 5267 5264 5261 5256 5250 5245 5241 5239 5238 5237 5235 5231 5228 5224 5220 5214 5209 5203 5196 5190 5182 5175 5170 5166 5162 5157 5151 5146 5139 5134 5129 5126 5124 5124 5123 5122 5122
5271 5265 5261 5259 5256 5254 5252 5250 5247 5243 5238 5235 5232 5230 5230 5228 5225 5223 5219 5215 5211 5206 5201 5195 5188 5182 5175 5168 5162 5158 5153 5149 5143 5138 5133 5127 5122 5118 5116 5114 5114 5114 5115
5252 5247 5243 5241 5239 5238 5237 5235 5233 5230 5227 5224 5224 5223 5221 5219 5216 5214 5211 5207 5202 5197 5192 5187 5181 5175 5169 5162 5155 5150 5146 5142 5137 5132 5127 5121 5115 5111 5108 5106 5104 5105 5105
5231 5228 5225 5223 5221 5221 5220 5220 5219 5217 5215 5214 5215 5214 5213 5210 5208 5206 5203 5199 5194 5190 5185 5180 5175 5170 5164 5158 5152 5145 5140 5135 5130 5126 5120 5115 5108 5103 5101 5098 5097 5097 5097
5207 5202 5199 5198 5198 5200 5202 5204 5205 5204 5204 5205 5206 5205 5204 5202 5200 5198 5195 5192 5187 5182 5177 5173 5169 5165 5160 5154 5148 5142 5136 5130 5125 5120 5115 5110 5103 5099 5096 5094 5092 5091 5090
5179 5175 5173 5173 5174 5178 5183 5187 5190 5192 5194 5196 5197 5197 5196 5195 5193 5191 5188 5185 5180 5175 5171 5166 5162 5157 5153 5149 5144 5138 5133 5128 5122 5117 5111 5106 5100 5096 5093 5090 5088 5087 5086